When you browse on this site, cookies collect data to enhance your experience and personalize the content and advertising you see.
Visit our Privacy Policy to learn more. By continuing to use the site, you agree to this use of cookies and data.
  • In Österreich
  • Länderverzeichnis
  • Für 7 Tage
  • Wassertemperatur
  • Wetterkarte
  • News
  • Widgets
  • user-avatar
    Anmelden

    Stündliche Wetter Julara

    Heute, 9 April, Donnerstag

    Zeit Temperatur Niederschläge Wind Luftdruck Luftfeuchtigkeit
    00:00 +22°C° 0 mm 5 m/S 720 mmHg 33%
    01:00 +21°C° 0 mm 4 m/S 720 mmHg 36%
    02:00 +20°C° 0 mm 4 m/S 720 mmHg 38%
    03:00 +19°C° 0 mm 3 m/S 720 mmHg 44%
    04:00 +19°C° 0 mm 3 m/S 720 mmHg 45%
    05:00 +18°C° 0 mm 3 m/S 720 mmHg 46%
    06:00 +18°C° 0 mm 3 m/S 720 mmHg 48%
    07:00 +20°C° 0 mm 4 m/S 721 mmHg 43%
    08:00 +22°C° 0 mm 5 m/S 721 mmHg 38%
    09:00 +25°C° 0 mm 5 m/S 722 mmHg 30%
    10:00 +26°C° 0 mm 6 m/S 722 mmHg 28%
    11:00 +27°C° 0 mm 6 m/S 721 mmHg 25%
    12:00 +29°C° 0 mm 6 m/S 721 mmHg 23%
    13:00 +29°C° 0 mm 5 m/S 721 mmHg 22%
    14:00 +29°C° 0 mm 5 m/S 720 mmHg 22%
    15:00 +29°C° 0 mm 5 m/S 720 mmHg 22%
    16:00 +28°C° 0 mm 4 m/S 720 mmHg 24%
    17:00 +27°C° 0 mm 4 m/S 720 mmHg 26%
    18:00 +26°C° 0 mm 4 m/S 720 mmHg 27%
    19:00 +25°C° 0 mm 3 m/S 720 mmHg 30%
    20:00 +24°C° 0 mm 3 m/S 721 mmHg 32%
    21:00 +22°C° 0 mm 3 m/S 721 mmHg 34%
    22:00 +21°C° 0 mm 3 m/S 721 mmHg 36%
    23:00 +20°C° 0 mm 3 m/S 721 mmHg 38%

    Morgen, 10 April, Freitag

    Zeit Temperatur Niederschläge Wind Luftdruck Luftfeuchtigkeit
    00:00 +20°C° 0 mm 2 m/S 721 mmHg 40%
    01:00 +19°C° 0 mm 3 m/S 721 mmHg 41%
    02:00 +19°C° 0 mm 3 m/S 721 mmHg 43%
    03:00 +19°C° 0 mm 3 m/S 721 mmHg 44%
    04:00 +18°C° 0 mm 3 m/S 721 mmHg 45%
    05:00 +18°C° 0 mm 3 m/S 721 mmHg 45%
    06:00 +18°C° 0 mm 3 m/S 721 mmHg 46%
    07:00 +20°C° 0 mm 3 m/S 721 mmHg 42%
    08:00 +22°C° 0 mm 3 m/S 722 mmHg 37%
    09:00 +25°C° 0 mm 4 m/S 723 mmHg 32%
    10:00 +26°C° 0 mm 4 m/S 722 mmHg 29%
    11:00 +27°C° 0 mm 3 m/S 722 mmHg 27%
    12:00 +29°C° 0 mm 3 m/S 721 mmHg 24%
    13:00 +30°C° 0 mm 3 m/S 721 mmHg 23%
    14:00 +30°C° 0 mm 4 m/S 720 mmHg 21%
    15:00 +32°C° 0 mm 4 m/S 719 mmHg 20%
    16:00 +30°C° 0 mm 3 m/S 720 mmHg 21%
    17:00 +29°C° 0 mm 3 m/S 720 mmHg 23%
    18:00 +27°C° 0 mm 3 m/S 720 mmHg 24%
    19:00 +26°C° 0 mm 3 m/S 720 mmHg 26%
    20:00 +25°C° 0 mm 3 m/S 720 mmHg 28%
    21:00 +24°C° 0 mm 3 m/S 721 mmHg 30%
    22:00 +22°C° 0 mm 3 m/S 721 mmHg 32%
    23:00 +21°C° 0 mm 3 m/S 721 mmHg 33%

    übermorgen, 11 April, Samstag

    Zeit Temperatur Niederschläge Wind Luftdruck Luftfeuchtigkeit
    00:00 +20°C° 0 mm 3 m/S 720 mmHg 34%
    01:00 +20°C° 0 mm 2 m/S 720 mmHg 36%
    02:00 +19°C° 0 mm 2 m/S 720 mmHg 37%
    03:00 +19°C° 0 mm 2 m/S 720 mmHg 38%
    04:00 +18°C° 0 mm 2 m/S 720 mmHg 38%
    05:00 +18°C° 0 mm 2 m/S 720 mmHg 38%
    06:00 +18°C° 0 mm 3 m/S 720 mmHg 39%
    07:00 +20°C° 0 mm 3 m/S 721 mmHg 34%
    08:00 +22°C° 0 mm 3 m/S 721 mmHg 29%
    09:00 +25°C° 0 mm 3 m/S 722 mmHg 24%
    10:00 +27°C° 0 mm 3 m/S 722 mmHg 21%
    11:00 +29°C° 0 mm 3 m/S 721 mmHg 19%
    12:00 +30°C° 0 mm 3 m/S 721 mmHg 16%
    13:00 +31°C° 0 mm 3 m/S 720 mmHg 14%
    14:00 +33°C° 0 mm 3 m/S 720 mmHg 13%
    15:00 +33°C° 0 mm 3 m/S 719 mmHg 12%
    16:00 +31°C° 0 mm 3 m/S 719 mmHg 13%
    17:00 +29°C° 0 mm 2 m/S 719 mmHg 15%
    18:00 +27°C° 0 mm 2 m/S 719 mmHg 16%
    19:00 +26°C° 0 mm 2 m/S 719 mmHg 17%
    20:00 +25°C° 0 mm 2 m/S 719 mmHg 18%
    21:00 +24°C° 0 mm 2 m/S 720 mmHg 20%
    22:00 +23°C° 0 mm 2 m/S 720 mmHg 21%
    23:00 +21°C° 0 mm 2 m/S 720 mmHg 22%

    12 April, Sonntag

    Zeit Temperatur Niederschläge Wind Luftdruck Luftfeuchtigkeit
    00:00 +20°C° 0 mm 2 m/S 720 mmHg 23%
    01:00 +19°C° 0 mm 2 m/S 719 mmHg 25%
    02:00 +20°C° 0 mm 1 m/S 719 mmHg 27%
    03:00 +19°C° 0 mm 1 m/S 718 mmHg 29%
    04:00 +19°C° 0 mm 1 m/S 718 mmHg 29%
    05:00 +18°C° 0 mm 1 m/S 719 mmHg 29%
    06:00 +18°C° 0 mm 1 m/S 719 mmHg 30%
    07:00 +20°C° 0 mm 2 m/S 719 mmHg 27%
    08:00 +24°C° 0 mm 2 m/S 720 mmHg 23%
    09:00 +27°C° 0 mm 2 m/S 721 mmHg 20%
    10:00 +28°C° 0 mm 2 m/S 720 mmHg 18%
    11:00 +30°C° 0 mm 1 m/S 720 mmHg 17%
    12:00 +31°C° 0 mm 1 m/S 720 mmHg 15%
    13:00 +32°C° 0 mm 1 m/S 719 mmHg 15%
    14:00 +33°C° 0 mm 1 m/S 718 mmHg 16%
    15:00 +33°C° 0 mm 1 m/S 718 mmHg 16%
    16:00 +32°C° 0 mm 2 m/S 718 mmHg 18%
    17:00 +30°C° 0 mm 2 m/S 718 mmHg 21%
    18:00 +28°C° 0 mm 2 m/S 718 mmHg 23%
    19:00 +27°C° 0 mm 2 m/S 718 mmHg 25%
    20:00 +27°C° 0 mm 2 m/S 719 mmHg 27%
    21:00 +26°C° 0 mm 2 m/S 719 mmHg 28%
    22:00 +25°C° 0 mm 3 m/S 719 mmHg 30%
    23:00 +25°C° 0 mm 3 m/S 719 mmHg 31%

    13 April, Montag

    Zeit Temperatur Niederschläge Wind Luftdruck Luftfeuchtigkeit
    00:00 +24°C° 0 mm 3 m/S 719 mmHg 33%
    01:00 +22°C° 0 mm 3 m/S 718 mmHg 35%
    02:00 +22°C° 0 mm 3 m/S 718 mmHg 37%
    03:00 +21°C° 0 mm 3 m/S 718 mmHg 39%
    04:00 +21°C° 0 mm 3 m/S 718 mmHg 41%
    05:00 +20°C° 0 mm 3 m/S 718 mmHg 43%
    06:00 +20°C° 0 mm 3 m/S 718 mmHg 45%
    07:00 +22°C° 0 mm 3 m/S 719 mmHg 39%
    08:00 +25°C° 0 mm 3 m/S 719 mmHg 34%
    09:00 +27°C° 0 mm 4 m/S 720 mmHg 29%
    10:00 +28°C° 0 mm 3 m/S 719 mmHg 26%
    11:00 +30°C° 0 mm 2 m/S 719 mmHg 22%
    12:00 +32°C° 0 mm 2 m/S 719 mmHg 19%
    13:00 +33°C° 0 mm 1 m/S 718 mmHg 19%
    14:00 +33°C° 0 mm 1 m/S 718 mmHg 18%
    15:00 +34°C° 0 mm 1 m/S 717 mmHg 18%
    16:00 +32°C° 0 mm 1 m/S 717 mmHg 20%
    17:00 +31°C° 0 mm 1 m/S 717 mmHg 22%
    18:00 +29°C° 0 mm 2 m/S 717 mmHg 24%
    19:00 +29°C° 0 mm 3 m/S 718 mmHg 26%
    20:00 +28°C° 0 mm 3 m/S 718 mmHg 27%
    21:00 +27°C° 0 mm 4 m/S 719 mmHg 29%
    22:00 +26°C° 0 mm 4 m/S 719 mmHg 31%
    23:00 +26°C° 0 mm 4 m/S 719 mmHg 34%

    14 April, Dienstag

    Zeit Temperatur Niederschläge Wind Luftdruck Luftfeuchtigkeit
    00:00 +25°C° 0 mm 4 m/S 718 mmHg 37%
    01:00 +23°C° 0 mm 4 m/S 718 mmHg 39%
    02:00 +22°C° 0 mm 4 m/S 718 mmHg 41%
    03:00 +22°C° 0 mm 4 m/S 718 mmHg 44%
    04:00 +21°C° 0 mm 4 m/S 719 mmHg 45%
    05:00 +21°C° 0 mm 4 m/S 719 mmHg 46%
    06:00 +20°C° 0 mm 4 m/S 719 mmHg 47%
    07:00 +22°C° 0 mm 4 m/S 720 mmHg 42%
    08:00 +25°C° 0 mm 5 m/S 720 mmHg 37%
    09:00 +27°C° 0 mm 5 m/S 721 mmHg 32%
    10:00 +29°C° 0 mm 5 m/S 720 mmHg 29%
    11:00 +32°C° 0 mm 4 m/S 720 mmHg 25%
    12:00 +33°C° 0 mm 4 m/S 720 mmHg 22%
    13:00 +34°C° 0 mm 4 m/S 719 mmHg 21%
    14:00 +35°C° 0 mm 3 m/S 719 mmHg 20%
    15:00 +35°C° 0 mm 3 m/S 718 mmHg 19%
    16:00 +34°C° 0 mm 3 m/S 718 mmHg 21%
    17:00 +33°C° 0 mm 4 m/S 718 mmHg 22%
    18:00 +30°C° 0 mm 4 m/S 718 mmHg 24%
    19:00 +29°C° 0 mm 5 m/S 719 mmHg 26%
    20:00 +28°C° 0 mm 5 m/S 719 mmHg 27%
    21:00 +26°C° 0 mm 6 m/S 720 mmHg 29%
    22:00 +26°C° 0 mm 5 m/S 720 mmHg 29%
    23:00 +25°C° 0 mm 5 m/S 720 mmHg 29%
    Mehr zeigen